Location: Songkhla
(7.2000°N, 100.6000°E)
Time: 20:39:19
(UTC+07:00)

ISS - Pass Details

Date: 24 April 2026
Orbit: 414 x 424 km, 51.6° (Epoch: 19 May)

Event Time Altitude Azimuth Distance (km) Brightness Sun altitude
Rises 00:56:09 0° 233° (SW) 2,336 - -67.7°
Reaches altitude 10° 00:58:23 10° 244° (WSW) 1,475 - -67.5°
Maximum altitude 01:01:20 29° 307° (NW) 776 - -67.1°
Drops below altitude 10° 01:04:16 10° 10° (N) 1,476 - -66.7°
Sets 01:06:31 0° 21° (NNE) 2,338 - -66.4°
